Regional Weather Roundup
Issued by NWS

Home | Current Version | Previous Version | Text Only | Print | Product List | Glossary Off
Versions: 1 2 3 4 5 6 7 8 9 10 11 12 13 14 15 16 17 18 19 20 21 22 23 24 25 26 27 28 29 30 31 32 33 34 35 36 37 38 39 40 41 42 43 44 45 46 47 48 49 50

000
ASUS43 KMKX 292211
RWRWI

WISCONSIN REGIONAL WEATHER ROUNDUP
NATIONAL WEATHER SERVICE MILWAUKEE/SULLIVAN WI
500 PM CDT SUN MAY 29 2016

NOTE: "FAIR" INDICATES FEW OR NO CLOUDS BELOW 12,000 FEET WITH NO
SIGNIFICANT WEATHER AND/OR OBSTRUCTIONS TO VISIBILITY.

WIZ001-002-006>008-014>016-023>028-292300-
NORTHWEST WISCONSIN

CITY           SKY/WX    TMP DP  RH WIND       PRES   REMARKS
SUPERIOR ARPT  MOSUNNY   73  55  52 NW21G26   29.89S
ASHLAND        CLOUDY    68  56  65 W10G17    29.88R
HAYWARD        PTSUNNY   72  55  55 VRB7      29.91S
SIREN          MOSUNNY   75  53  46 W13G18    29.92S
CUMBERLAND     PTSUNNY   70  54  56 NW9       29.93S
RICE LAKE      PTSUNNY   72  54  53 W12G18    29.94S
CHETEK         NOT AVBL
LADYSMITH      MOSUNNY   71  55  55 W15G24    29.93S
EAU CLAIRE     MOSUNNY   75  54  47 W17G25    29.93R
MENOMONIE      SUNNY     76  56  49 W16       29.93F
NEW RICHMOND   MOSUNNY   75  55  50 W12       29.94F
OSCEOLA        MOSUNNY   76  56  49 W12       29.96F
$$

WIZ003>005-009-010-017-018-292300-
NORTH CENTRAL WISCONSIN

CITY           SKY/WX    TMP DP  RH WIND       PRES   REMARKS
MANITOWISH WTR NOT AVBL
ARBOR VITAE    PTSUNNY   67  59  75 W12G18    29.89R
WOODRUFF       PTSUNNY   67  59  75 W12G18    29.89R
RHINELANDER    MOSUNNY   71  58  63 W17G23    29.88S
EAGLE RIVER      N/A     65  56  72 W21G30    29.88R
LAND O LAKES   LGT RAIN  63  60  88 NW10      29.88R
PHILLIPS       CLOUDY    67  57  68 W9        29.91R
TOMAHAWK       MOSUNNY   71  56  58 W17G24    29.90R
MEDFORD        CLOUDY    71  58  65 W14G22    29.91S
MERRILL        MOSUNNY   71  60  69 W14       29.90F
$$

WIZ029-030-035-036-043>047-292300-
CENTRAL WISCONSIN

CITY           SKY/WX    TMP DP  RH WIND       PRES   REMARKS
WAUSAU         PTSUNNY   75  58  55 W20G31    29.89S
MOSINEE        PTSUNNY   72  61  68 W17G23    29.92S
MARSHFIELD     MOSUNNY   75  57  53 W16G26    29.91F
STEVENS POINT  PTSUNNY   72  57  58 W14G23    29.92R
WAUPACA        SUNNY     78  61  55 W15       29.91S HX  80
WAUTOMA        PTSUNNY  N/A N/A N/A W16G23      N/A
WISC RAPIDS    MOSUNNY   76  55  48 NW14G21   29.93S
CAMP DOUGLAS   MOSUNNY   77  64  64 NW17G25   29.93S
$$

WIZ011>013-019>022-031-037>040-048>050-292300-
NORTHEAST WISCONSIN

CITY           SKY/WX    TMP DP  RH WIND       PRES   REMARKS
ANTIGO         MOSUNNY   69  60  75 W18G25    29.90S
SHAWANO        PTSUNNY   73  63  68 W8        29.89S
OCONTO         MOSUNNY   73  64  71 SW14G21   29.86S
STURGEON BAY   NOT AVBL
GREEN BAY      PTSUNNY   74  61  63 W15G26    29.89S
MANITOWOC      MOSUNNY   74  58  57 W24G30    29.90F
APPLETON       MOSUNNY   73  57  56 W17G23    29.90S
CLINTONVILLE   PTSUNNY   73  55  53 W20G26    29.89S
OSHKOSH        MOSUNNY   75  57  53 W13G22    29.90F
$$

WIZ032>034-041-042-053>061-292300-
SOUTHWEST WISCONSIN

CITY           SKY/WX    TMP DP  RH WIND       PRES   REMARKS
LA CROSSE      PTSUNNY   76  59  55 NW13      29.93F
SPARTA         MOSUNNY   78  55  45 W13G20    29.95S
VIROQUA        PTSUNNY   73  60  63 W12       29.97F
BOSCOBEL       MOSUNNY   79  58  48 W9G25     29.96F HX  80
PRAIRIE DU CHI CLOUDY    78  57  47 W9        29.96F
PLATTEVILLE    MOSUNNY   77  59  54 W14       29.99S
$$

WIZ056-057-062-063-064-067-068-292300-
SOUTH CENTRAL WISCONSIN

CITY           SKY/WX    TMP DP  RH WIND       PRES   REMARKS
REEDSBURG      MOSUNNY   76  58  53 W17G25    29.95R
BARABOO/DELLS  PTSUNNY   77  55  46 W14G21    29.95S
LONE ROCK      CLOUDY    77  58  51 NW12G24   29.96S
MINERAL POINT  PTSUNNY   77  55  47 W17       29.98S
MADISON        PTSUNNY   77  55  46 W10G18    29.95S
MIDDLETON      MOSUNNY   78  58  50 W15G23    29.96F
WATERTOWN      MOSUNNY   78  58  50 W14G20    29.94S
MONROE         MOSUNNY   77  54  44 W18G26    29.99S
JANESVILLE     PTSUNNY   79  55  44 W13G21    29.97S
$$

WIZ051-052-058>065-066-070>072-292300-
SOUTHEAST WISCONSIN

CITY           SKY/WX    TMP DP  RH WIND       PRES   REMARKS
MILWAUKEE      MOSUNNY   79  56  45 W14G23    29.94F HX  80
WAUKESHA       PTSUNNY   75  55  50 W12G23    29.96S
MILWAUKEE/TIMM MOSUNNY   79  54  41 MISG      29.95S
RACINE         PTSUNNY   80  56  43 W13G23    29.96F HX  80
BURLINGTON     MOSUNNY   77  54  44 W12       29.96F
KENOSHA        MOSUNNY   79  59  50 W13       29.96S HX  80
FOND DU LAC    MOSUNNY   77  59  53 W10G21    29.91F
SHEBOYGAN      MOSUNNY   74  62  66 NW8       29.91F
WEST BEND      MOSUNNY   77  54  44 W15G22    29.93S
JUNEAU         MOSUNNY   76  57  51 W13G18    29.95R
$$

LSZ147-162-292300-
LAKE SUPERIOR

STATION/POSITION TIME  TEMP    WIND        PRES    WAVE
                       AIR SEA DIR/SP/G            HT/PER
                 (UTC) (F)     (DEG/KT/KT) (MB)    (FT/S)
W MID LAKE BUOY  2150   45 38  250/ 16/ 17 1009.1R   2/ 4
DEVILS ISLAND    2200   52     250/ 17/ 19 1010.7R
PORT WING        2100   60     260/ 14/ 21 1011.9R
SAXON HARBOR     2100   69     280/  9/ 14 1010.5R
$$

LMZ867-665-643>646-292300-
LAKE MICHIGAN

STATION/POSITION TIME  TEMP    WIND        PRES    WAVE
                       AIR SEA DIR/SP/G            HT/PER
                 (UTC) (F)     (DEG/KT/KT) (MB)    (FT/S)
CHAMBERS ISLAND  2100   69     190/  4/ 11 1010.5S
N MID LAKE BUOY  2150   51 48  200/ 14/ 16 1010.5F   3/ 5
NORTHPORT PIER   2100   70     240/  4/ 15 1010.5
KEWAUNEE LAKESHO 2100   71     270/ 15/ 20 1011.8R
SHEBOYGAN LAKESH 2200   74     300/  9/ 10 1012.9F
PORT WASHINGTON  2100   80     260/ 11/ 19 1013.5F
S MID LAKE BUOY  2150   58 51  180/ 10/ 12 1014.2F   0
KENOSHA   LAKESH 2200   79     260/ 18/ 21 1013.9F
$$

TC  - TEMPERATURE IN CELSIUS
VSB - VISIBILITY IN STATUTE MILES
WCI - WIND CHILL INDEX
HX  - HEAT INDEX




USA.gov is the U.S. government's official web portal to all federal, state and local government web resources and services.